Location: Unspecified
(0.0000°N, 0.0000°E)
Time: 18:20:14
(UTC+00:00)

STARLINK 1029 - Pass Details

Date: 19 January 2020
Orbit: 382 x 384 km, 53.0° (Epoch: 18 January)

Event Time Altitude Azimuth Distance (km) Brightness Sun altitude
Exits shadow 05:35:43 - 264° (W) 1,494 5.3 -8.1°
Reaches altitude 10° 05:36:08 10° 270° (W) 1,392 5.1 -8.0°
Maximum altitude 05:37:52 14° 304° (NW) 1,174 4.7 -7.6°
Drops below altitude 10° 05:39:37 10° 339° (NNW) 1,388 5.3 -7.2°
Sets 05:42:21 0° 6° (N) 2,236 6.6 -6.6°
